Regional Weather Roundup
Issued by NWS Portland, ME

Home | Current Version | Previous Version | Text Only | Print | Product List | Glossary On
Versions: 1 2 3 4 5 6 7 8 9 10 11 12 13 14 15 16 17 18 19 20 21 22 23 24 25 26 27 28 29 30 31 32 33 34 35 36 37 38 39 40 41 42 43 44 45 46 47 48 49 50
000
ASUS41 KGYX 021010
RWRGYX
WEATHER ROUNDUP FOR MAINE AND NEW HAMPSHIRE
NATIONAL WEATHER SERVICE GRAY ME
600 AM EDT THU JUL 02 2015

MEZ002-005-006-010-012-015-018-020-021-024-026-027-029-021100-
MAINE

CITY           SKY/WX    TMP DP  RH WIND       PRES   REMARKS
PORTLAND       PTCLDY    62  58  86 SW8       29.78R
SANFORD        CLEAR     57  54  88 SW3       29.81R
BAR HARBOR     CLOUDY    59  59 100 SW5       29.75R VSB 1/4
WISCASSET      FOG       56  55  97 CALM      29.78R VSB 1
ROCKLAND       CLOUDY    59  57  94 SW5       29.76R VSB 1/2
FRYEBURG       MOCLDY    59  57  93 S5        29.78R
LEWISTONAUBURN CLEAR     57  54  88 CALM      29.77R
AUGUSTA        PTCLDY    58  57  97 SW3       29.76R
BANGOR         FOG       58  58 100 SW3       29.74R VSB 1/8
GREENVILLE       N/A     56  54  93 CALM      29.71R
MILLINOCKET    PTCLDY    61  56  83 VRB3      29.71R
HOULTON        CLOUDY    62  59  90 SW6       29.67R
PRESQUE ISLE   PTSUNNY   61  54  77 SW14G20   29.66R
FRENCHVILLE    CLOUDY    58  55  90 S9        29.61R
CARIBOU        CLOUDY    60  54  80 SW9       29.64R
$$

NHZ002-005-008-009-011-012-014-021100-
NEW HAMPSHIRE

CITY           SKY/WX    TMP DP  RH WIND       PRES   REMARKS
PORTSMOUTH     MOCLDY    60  57  90 SW6       29.80R
ROCHESTER      PTCLDY    60  56  86 VRB3      29.80R
NASHUA         PTCLDY    61  58  90 CALM      29.84R
MANCHESTER     MOCLDY    61  57  87 VRB3      29.81R
CONCORD        PTCLDY    59  56  89 SW3       29.82R
LACONIA        CLEAR     61  55  82 SW13      29.80R
PLYMOUTH       CLOUDY    57  57 100 CALM      29.81R
BERLIN         PTCLDY    59  51  75 CALM      29.80R
WHITEFIELD     PTCLDY    58  53  84 SW5       29.83R
JAFFREY        CLEAR     55  54  96 S3        29.86R
KEENE          PTCLDY    57  52  82 CALM      29.86R
LEBANON        PTCLDY    58  54  86 E3        29.82R
MT WASHINGTON  DRZL/FOG  39  39 100 W61G70      N/A  VSB 0
$$

VTZ005-007-008-021100-
VERMONT

CITY           SKY/WX    TMP DP  RH WIND       PRES   REMARKS
ST JOHNSBURY     N/A     56  53  90 MISG      29.82R
MONTPELIER     MOCLDY    55  52  89 NW6       29.88R
BURLINGTON     PTCLDY    60  51  72 W12G18    29.85R
$$

MAZ007-012-024-CTZ003-RIZ002-NYZ038-NYZ072-021100-
SOUTHERN NEW ENGLAND AND NY

CITY           SKY/WX    TMP DP  RH WIND       PRES   REMARKS
BOSTON         PTCLDY    65  57  75 W12       29.83S
WORCESTER      CLEAR     61  55  81 W12       29.87R
NANTUCKET      CLEAR     62  60  93 SW5       29.88R FOG
PROVIDENCE     PTCLDY    64  58  80 W7        29.87R
HARTFORD       PTCLDY    61  57  87 S3        29.87R
ALBANY         MOCLDY    61  55  81 W6        29.88S
NEW YORK CITY  PTCLDY    71  57  61 NW5       29.87R
$$

ANZ081-ANZ082-ANZ150-NHZ014-MEZ023>029-021100-
COASTAL MARINE OBSERVATIONS

STATION/POSITION TIME  TEMP    WIND        PRES    WAVE
                       AIR SEA DIR/SP/G            HT/PER
                 (UTC) (F)     (DEG/KT/KT) (MB)    (FT/S)
MOUNT DESERT ROC 1000   53     230/ 15/ 16 1008.0R
MATINICUS ROCK   1000   55     250/ 17/ 17 1008.0R
ISLE OF SHOALS   1000   62     240/ 16/ 17 1008.8R
JEFFREYS LEDGE   0903      57                N/A     3/ 8
CASHES LEDGE BUO 0950   60 55              1008.6R   5/ 7
GEORGES BANK BUO 0950   61 58  230/  6/  8 1011.5R   7/ 8
$$

.............KEY..............
   WCI - WIND CHILL
   TC  - TEMPERATURE IN CELSIUS
   VSB - VISIBILITY IN MILES
   HX  - HEAT INDEX
   FAIR- INDICATES FEW OR NO CLOUDS BELOW 12,000 FT, WITH NO
         SIGNIFICANT WEATHER AND/OR OBSTRUCTIONS TO VISIBILITY.




USA.gov is the U.S. government's official web portal to all federal, state and local government web resources and services.